Weather Roundup
Issued by NWS

Home | Current Version | Previous Version | Graphics & Text | Print | Product List | Glossary Off
Versions: 1 2 3 4 5 6 7 8 9 10 11 12 13 14 15 16 17 18 19 20 21 22 23 24 25 26 27 28 29 30 31 32 33 34 35 36 37 38 39 40 41 42 43 44 45 46 47 48 49 50

000
NZUS93 KARX 211110
HRRWXR

CURRENT HOURLY OBSERVATIONS ACROSS
MUCH OF THE UPPER MISSISSIPPI VALLEY
NATIONAL WEATHER SERVICE LA CROSSE WI
500 AM CST TUE NOV 21 2017


...SOUTHEAST MINNESOTA...


CITY           SKY/WX    TMP DP  RH WIND       PRES   REMARKS
ROCHESTER      PTCLDY    31  15  52 NW33G43   29.68R WCI  15
ROCHESTER/MAYO FAIR      32  11  42 W41G51    29.65F WCI  15
WINONA         CLEAR     36  18  48 NW13G28   29.67R WCI  27
AUSTIN         CLOUDY    30  14  51 NW31G39   29.74R WCI  15
ALBERT LEA     CLOUDY    30  12  47 NW15G30   29.76R WCI  19
DODGE CENTER   CLOUDY    28  12  50 W28G36    29.71R WCI  13
PRESTON        CLOUDY    32  13  46 NW23G33   29.68R WCI  19
OWATONNA       PTCLDY    28  18  64 NW30G36   29.77R WCI  13
FARIBAULT      CLOUDY    28  16  59 NW21G33   29.77R WCI  15
$$

...ELSEWHERE IN MINNESOTA...


CITY           SKY/WX    TMP DP  RH WIND       PRES   REMARKS
MINNEAPOLIS    CLOUDY    28  14  55 NW24G36   29.74R WCI  14
INTNL FALLS    LGT SNOW  18  11  74 NW21G29   29.67R WCI   1
DULUTH         FLURRIES  21  10  62 NW24G36   29.55R WCI   4
RED WING       MOCLDY    32  16  51 NW21G32   29.70R WCI  20
REDWOOD FALLS  CLOUDY    25  10  53 NW18G31   29.86R WCI  11
MANKATO        PTCLDY    27  17  66 NW24G32   29.81R WCI  12
WORTHINGTON    CLOUDY    32  13  45 NW31G43   29.86R WCI  17
FAIRMONT       CLOUDY    34  16  47 NW25G35   29.82R WCI  21
$$

...SOUTHWEST WISCONSIN...


CITY           SKY/WX    TMP DP  RH WIND       PRES   REMARKS
LA CROSSE      CLOUDY    39  15  37 NW20G26   29.64R WCI  29
PRAIRIE DU CHI CLOUDY    40  23  50 W13       29.66R WCI  33
BOSCOBEL       MOCLDY    43  24  47 W9        29.64R
LONE ROCK      CLOUDY    42  29  59 W10       29.60R
PLATTEVILLE    CLOUDY    40  31  69 W10       29.64F WCI  34
FORT MC COY    CLOUDY    38  18  44 W15G23    29.61R WCI  30
CAMP DOUGLAS   MOCLDY   N/A N/A N/A W14G25    29.58R
MAUSTON-NEW LI PTSUNNY   41  23  48 W12G21    29.56R
VIROQUA        FAIR      38  21  50 W12G17    29.61R WCI  30
WIS DELLS      CLOUDY    42  24  50 W12G17    29.56R
$$

...ELSEWHERE IN WISCONSIN...


CITY           SKY/WX    TMP DP  RH WIND       PRES   REMARKS
MILWAUKEE      PTCLDY    42  32  67 SW14      29.58S
MADISON        MOCLDY    43  31  62 W6        29.58R
GREEN BAY      CLEAR     42  29  59 W20G31    29.47R
EAU CLAIRE     MOCLDY    33  20  58 W20G33    29.61R WCI  21
BLACK RVR FLS  FAIR      37  13  37 W13G21    29.59R WCI  29
MEDFORD        MOCLDY    32  24  71 W18G25    29.50R WCI  21
WAUSAU         CLEAR     35  21  56 NW24G38   29.48R WCI  23
WIS RAPIDS     CLEAR     37  23  56 W7        29.54R WCI  32
MARSHFIELD     CLEAR     35  22  58 W15G28    29.51R WCI  25
RICE LAKE      CLOUDY    30  18  60 W21G30    29.63R WCI  17
$$

...NORTHEAST IOWA...


CITY           SKY/WX    TMP DP  RH WIND       PRES   REMARKS
WATERLOO       CLOUDY    38  19  46 NW17G24   29.73R WCI  28
DUBUQUE        CLOUDY    39  29  67 NW9       29.67R WCI  33
DECORAH        CLOUDY    37  14  38 NW14G29   29.66R WCI  29
MASON CITY     CLOUDY    35  14  42 NW23G32   29.77R WCI  23
CHARLES CITY   CLOUDY    37  14  38 NW16G26   29.74R WCI  28
OELWEIN        CLOUDY    37  23  56 NW21G26   29.71R WCI  27
$$

...ELSEWHERE IN IOWA...


CITY           SKY/WX    TMP DP  RH WIND       PRES   REMARKS
DES MOINES     CLOUDY    44  24  45 N14       29.79R
IOWA CITY      CLOUDY    41  31  67 W8        29.74R
FORT DODGE     CLOUDY    38  19  46 NW9G16    29.82R WCI  31
MARSHALLTOWN   CLOUDY    39  22  50 NW17G26   29.75R WCI  30
CEDAR RAPIDS   CLOUDY    40  31  70 NW10      29.72R WCI  33
$$

...NORTHERN ILLINOIS...


CITY           SKY/WX    TMP DP  RH WIND       PRES   REMARKS
CHICAGO-OHARE  MOCLDY    43  31  62 SW17G24   29.67R
CHICAGO-MIDWAY PTCLDY    43  32  65 SW13      29.69R
MOLINE         PTCLDY    41  30  65 W7        29.69S
ROCKFORD       CLOUDY    44  32  62 SW7       29.67R
PEORIA         PTCLDY    37  31  78 S6        29.75R WCI  32
$$

NOTE: "FAIR" INDICATES FEW OR NO CLOUDS BELOW 12,000 FEET WITH NO
SIGNIFICANT WEATHER AND/OR OBSTRUCTIONS TO VISIBILITY. WIND
SPEEDS ARE IN MILES-PER-HOUR.




USA.gov is the U.S. government's official web portal to all federal, state and local government web resources and services.